BREEZE-M DEB, 38571

Orbit data source: Space-Track

BREEZE-M DEB, 38571 is space debris in HEO originally from a launch on Fri, 14 Mar 2008 UTC launched from the Tyuratam Missile And Space Complex (TTMTR). Debris objects in space refer to the collection of defunct objects orbiting the Earth. Examples of debris include non-operational satellites, rocket bodies, and fragments generated from explosions, collisions, or faulty payload assembly.

Loading next visibility...
Identifier
38571, 2008-011S
Orbit
HEO
Country
Flag of CISCIS
Related business
Manufacturer
Unknown
Mission
Spacecraft
Bus & Motor
Unknown
Mass
Unknown
Launch date (UTC)
2008-03-14 (18 years ago)
Launch vehicle
Unknown
Launch site
Tyuratam Missile And Space Complex (TTMTR)
Object type
Payload
Rocket body
Debris
Shape & HBR
Unknown shape, 0.2 m
Radar Cross Section
Medium (>0.1 m² and <1 m²)

Expand to show TLE details & history
Last TLE update: 11 months ago

TLE from 11 months ago
0 BREEZE-M DEB
1 38571U 08011S   25191.70999019 -.00000062  00000-0  00000-0 0  9995
2 38571  49.6300   0.2981 6204600 241.4273 346.8767  2.98512788144391
Epoch: 2025-07-10T17:02Z
TLE epoch observation values (Epoch: 2025-07-10T17:02:23.152Z)
Latitude
0.03823°
Longitude
-4.2309°
Altitude
3,303.897 km
Speed
7.923 km/s
True Right ascension
12h 00m 57s
True Declination
0° 02' 17"
Sunlit
Object was in daylight at epoch
Visualization orbit readout
Latitude
Unknown
Longitude
Unknown
Altitude
Unknown
Speed
Unknown
Apparent Right ascension
Unknown
Apparent Declination
Unknown
Sunlit
N/A
Visualization observer readout
Local Sidereal Time
03:28:33
Azimuth
Unknown
Elevation
Unknown
Doppler factor
Unknown
Orbital elements
Apogee altitude
26,639.36 km
Perigee altitude
1,355.137 km
Semi-major axis
20,375.385 km
Eccentricity
0.62046
Inclination
49.63°
RAAN
0.2981°
Arg. of periapsis
241.4273°
True anomaly
298.84029°
Mean anomaly
346.8767°
Eccentric anomaly
328.08068°
Mean motion
0.74625 °/min
Orbital period
482.41 mins
BSTAR
0
Loading maneuver chart data...
Computing Atmospheric mass density...
Loading historical data...
Loading historical data...
Loading historical data...
Loading historical data...
Loading historical data...
Loading historical data...
Loading historical data...

Documentation

Showing up to 5 results
|